Weather History for Shaw AFB, SC

Change the Weather History Date:

Saturday, December 15, 2012

  Actual Average Record
Temperature  
Mean Temperature 48 °F -  
Max Temperature 61 °F 55 °F 73 °F (2008)
Min Temperature 36 °F 34 °F 18 °F (2010)
Degree Days  
Heating Degree Days 16    
Moisture  
Dew Point 38 °F    
Average Humidity 62    
Maximum Humidity 80    
Minimum Humidity 43    
Precipitation  
Precipitation 0.00 in - - ()
Sea Level Pressure  
Sea Level Pressure 30.16 in    
Wind  
Wind Speed 2 mph (ENE)    
Max Wind Speed 8 mph    
Max Gust Speed -    
Visibility 10 miles    
Events      
Averages and records for this station are not official NWS values.
T = Trace of Precipitation, MM = Missing Value Source: NWS Daily Summary

Daily Weather History Graph

Daily Weather History Graph

Search for Another Location

Airport:

Trip Planner

Search our weather history database for the weather conditions in past years. The results will help you decide how hot, cold, wet, or windy it might be!

Date:

Astronomy

Dec. 15, 2012 Rise Set
Actual Time 7:20 AM EST 5:14 PM EST
Civil Twilight 6:52 AM EST 5:42 PM EST
Nautical Twilight 6:21 AM EST 6:13 PM EST
Astronomical Twilight 5:50 AM EST 6:43 PM EST
Moon 9:16 AM EST (12/15) 8:11 PM EST (12/15)
Length of Visible Light 10h 49m
Length of Day
9h 54m
Waxing Crescent, 8% of the Moon is Illuminated
Dec 15
Waxing Crescent
Dec 20
First Quarter
Dec 28
Full
Jan 4
Last Quarter
Jan 11
New

Hourly Weather History & Observations

Time (EST) Temp. Windchill Dew Point Humidity Pressure Visibility Wind Dir Wind Speed Gust Speed Precip Events Conditions
12:55 AM 36.9 °F - 28.9 °F 73% 30.25 in 10.0 mi Calm Calm - N/A   Partly Cloudy
1:55 AM 36.1 °F 33.5 °F 29.7 °F 77% 30.23 in 10.0 mi ENE 3.5 mph - N/A   Mostly Cloudy
2:55 AM 38.5 °F - 30.4 °F 73% 30.22 in 10.0 mi Calm Calm - N/A   Partly Cloudy
3:55 AM 39.2 °F 37.0 °F 31.6 °F 74% 30.21 in 10.0 mi ENE 3.5 mph - N/A   Mostly Cloudy
4:55 AM 40.8 °F 38.8 °F 32.0 °F 71% 30.19 in 10.0 mi NE 3.5 mph - N/A   Overcast
5:55 AM 41.4 °F 37.6 °F 32.0 °F 69% 30.20 in 10.0 mi NE 5.8 mph - N/A   Overcast
6:55 AM 41.9 °F - 31.5 °F 66% 30.24 in 10.0 mi Calm Calm - N/A   Partly Cloudy
7:23 AM 41.0 °F - 32.0 °F 70% 30.25 in 10.0 mi Calm Calm - N/A   Mostly Cloudy
7:55 AM 42.4 °F 39.6 °F 34.7 °F 74% 30.24 in 10.0 mi NE 4.6 mph - N/A   Overcast
8:55 AM 45.0 °F - 32.0 °F 60% 30.24 in 10.0 mi Calm Calm - N/A   Overcast
9:55 AM 47.3 °F - 33.8 °F 59% 30.24 in 10.0 mi ENE 4.6 mph - N/A   Overcast
10:55 AM 49.3 °F - 34.0 °F 56% 30.25 in 10.0 mi NNE 8.1 mph - N/A   Overcast
11:55 AM 50.2 °F - 34.7 °F 55% 30.22 in 10.0 mi NE 6.9 mph - N/A   Overcast
12:31 PM 51.8 °F - 33.8 °F 50% 30.20 in 10.0 mi Calm Calm - N/A   Overcast
12:49 PM 53.6 °F - 33.8 °F 47% 30.19 in 10.0 mi Calm Calm - N/A   Mostly Cloudy
12:55 PM 55.0 °F - 33.8 °F 45% 30.19 in 10.0 mi SE 3.5 mph - N/A   Mostly Cloudy
1:55 PM 59.2 °F - 36.5 °F 43% 30.16 in 10.0 mi Calm Calm - N/A   Overcast
2:55 PM 61.5 °F - 39.4 °F 44% 30.15 in 10.0 mi Calm Calm - N/A   Mostly Cloudy
3:08 PM 60.8 °F - 41.0 °F 48% 30.14 in 10.0 mi Variable 3.5 mph - N/A   Mostly Cloudy
3:14 PM 60.8 °F - 41.0 °F 48% 30.14 in 10.0 mi ESE 3.5 mph - N/A   Mostly Cloudy
3:55 PM 60.1 °F - 41.0 °F 49% 30.14 in 10.0 mi SE 4.6 mph - N/A   Scattered Clouds
3:57 PM 60.8 °F - 41.0 °F 48% 30.14 in 10.0 mi SE 3.5 mph - N/A   Mostly Cloudy
4:44 PM 59.0 °F - 41.0 °F 51% 30.13 in 10.0 mi Calm Calm - N/A   Overcast
4:55 PM 59.2 °F - 41.9 °F 53% 30.14 in 10.0 mi Calm Calm - N/A   Overcast
5:42 PM 55.4 °F - 41.0 °F 58% 30.13 in 10.0 mi NE 5.8 mph - N/A   Mostly Cloudy
5:55 PM 53.4 °F - 40.3 °F 61% 30.12 in 10.0 mi NE 4.6 mph - N/A   Scattered Clouds
6:43 PM 53.6 °F - 41.0 °F 62% 30.14 in 10.0 mi Calm Calm - N/A   Mostly Cloudy
6:55 PM 53.6 °F - 41.0 °F 62% 30.13 in 10.0 mi Calm Calm - N/A   Overcast
7:34 PM 55.4 °F - 42.8 °F 63% 30.14 in 10.0 mi Calm Calm - N/A   Overcast
7:55 PM 54.7 °F - 42.4 °F 63% 30.13 in 10.0 mi Calm Calm - N/A   Overcast
7:58 PM 55.4 °F - 42.8 °F 63% 30.13 in 10.0 mi Calm Calm - N/A   Overcast
8:22 PM 53.6 °F - 42.8 °F 67% 30.13 in 10.0 mi Calm Calm - N/A   Overcast
8:55 PM 54.5 °F - 43.3 °F 66% 30.13 in 10.0 mi Calm Calm - N/A   Overcast
9:12 PM 55.4 °F - 42.8 °F 63% 30.13 in 10.0 mi Calm Calm - N/A   Overcast
9:55 PM 53.4 °F - 42.4 °F 66% 30.12 in 10.0 mi Calm Calm - N/A   Mostly Cloudy
9:57 PM 53.6 °F - 42.8 °F 67% 30.12 in 10.0 mi Calm Calm - N/A   Scattered Clouds
10:55 PM 49.6 °F - 41.9 °F 75% 30.10 in 10.0 mi Calm Calm - N/A   Clear
10:59 PM 50.0 °F - 42.8 °F 76% 30.10 in 10.0 mi Calm Calm - N/A   Partly Cloudy
11:08 PM 50.0 °F - 42.8 °F 76% 30.10 in 10.0 mi Calm Calm - N/A   Mostly Cloudy
11:25 PM 51.8 °F - 42.8 °F 71% 30.10 in 10.0 mi Calm Calm - N/A   Overcast
11:55 PM 52.3 °F - 46.4 °F 80% 30.09 in 10.0 mi South 3.5 mph - N/A   Overcast